Tracking 28799 objects as of 18-Apr-2024
HD Live streaming from Space Station
objects crossing your sky now

COSMOS 1275 DEB

Track COSMOS 1275 DEB now!
10-day predictions


NORAD ID: 27734
Int'l Code: 1981-053MV
Perigee: 833.1 km
Apogee: 983.1 km
Inclination: 83.1 °
Period: 103.0 minutes
Semi major axis: 7279 km
RCS: 0.0056 m2 (small)
Launch date: June 4, 1981
Source: Commonwealth of Independent States (former USSR) (CIS)
Launch site: PLESETSK MISSILE AND SPACE COMPLEX (PKMTR)

Note: This is SATELLITE DEBRIS
Your satellite tracking list
Your tracking list is empty




NASA's NSSDC Master Catalog

Two Line Element Set (TLE):
1 27734U 81053MP  24107.30550268  .00006214  00000-0  41790-2 0  9999
2 27734  83.1169 307.9597 0103055 126.1535 234.9224 13.97926562445458
Source of the keplerian elements: AFSPC